Regional Weather Roundup
Issued by NWS

Home | Current Version | Previous Version | Text Only | Print | Product List | Glossary On
Versions: 1 2 3 4 5 6 7 8 9 10 11 12 13 14 15 16 17 18 19 20 21 22 23 24 25 26 27
000
ASUS46 KSEW 310310
RWRWA

WASHINGTON REGIONAL WEATHER ROUNDUP
NATIONAL WEATHER SERVICE SEATTLE WA
800 PM PDT SAT JUL 30 2016

NOTE:"FAIR" INDICATES FEW OR NO CLOUDS BELOW 12,000 FEET WITH NO
SIGNIFICANT WEATHER AND/OR OBSTRUCTIONS TO VISIBILITY.

WAZ505-507>509-310400-
SEATTLE, TACOMA, EVERETT, AND VICINITY

CITY           SKY/WX    TMP DP  RH WIND       PRES   REMARKS
EVERETT        CLEAR     70  52  52 SW5       29.92F
BOEING FIELD   CLEAR     73  53  49 SW6       29.89F
RENTON         CLEAR     73  54  51 SW6       29.89F
SEATAC AIRPORT PTCLDY    70  56  61 S8        29.92F
JBLM-MCCHORD   CLEAR     69  50  51 W14       29.92S
PUYALLUP       FAIR      70  54  56 VRB3      29.93S
BREMERTON      CLEAR     68  52  56 S8        29.94S
JBLM-FT LEWIS  CLEAR     69  50  50 S8        29.92S
TACOMA NARROWS CLEAR     66  51  58 SW8       29.92S
$$

WAZ001-503-506-510-514-515-310400-
NORTH INTERIOR

CITY           SKY/WX    TMP DP  RH WIND       PRES   REMARKS
BELLINGHAM     CLEAR     70  51  51 CALM      29.90F
FRIDAY HARBOR  CLEAR     65  50  58 SW7       29.92F
EASTSOUND      CLEAR     68  52  56 CALM      29.89F
PORT ANGELES   CLEAR     61  50  67 NW8       29.94F
EDIZ HOOK      FAIR      58  51  77 W16G24    29.93F
PORT TOWNSEND  FAIR      66  54  63 NW7       29.92S
NAS WHIDBEY    PTCLDY    61  52  72 W5        29.96S
ARLINGTON      CLEAR     73  52  46 SW3       29.91F
BURLINGTON     CLEAR     70  50  49 W6        29.90F HAZE
$$

WAZ020-022-039-040-504-511-512-310400-
SOUTHWEST INTERIOR

CITY           SKY/WX    TMP DP  RH WIND       PRES   REMARKS
SHELTON        CLEAR     65  51  60 SW15G23   29.90F
OLYMPIA        CLEAR     65  48  54 SW12      29.93S
CHEHALIS       FAIR      64  54  68 SW8G17    29.97R
KELSO          CLEAR     64  52  64 W12G18    30.00R
VANCOUVER      CLEAR     71  49  45 NW10      29.95S
SCAPPOOSE, OR  CLEAR     68  48  48 NW9       29.97R
PORTLAND, OR   PTCLDY    72  49  44 NW20      29.95S
$$

WAZ021-516-517-310400-
WASHINGTON COAST

CITY           SKY/WX    TMP DP  RH WIND       PRES   REMARKS
FORKS          CLOUDY    57  53  86 W7        29.98F
HOQUIAM        LGT RAIN  59  54  83 W14       29.99F
ASTORIA, OR    CLOUDY    62  53  72 NW13G22   30.04S
$$

WAZ019-023-024-040-518-519-310400-
CASCADE MOUNTAINS AND COLUMBIA GORGE

CITY           SKY/WX    TMP DP  RH WIND       PRES   REMARKS
STAMPEDE PASS  MOCLDY    55  46  71 W8        29.98F
TROUTDALE, OR  CLEAR     73  48  41 NW8G17    29.94R
THE DALLES, OR CLEAR     79  44  28 NW16G28   29.79S
$$

WAZ026-027-041>044-520-521-310400-
EAST SLOPES

CITY           SKY/WX    TMP DP  RH WIND       PRES   REMARKS
OMAK           CLEAR     85  35  16 N14       29.63R
WENATCHEE      CLEAR     81  33  17 NW16      29.71R
ELLENSBURG     CLEAR     72  48  42 NW25G36   29.81R
YAKIMA         CLEAR     82  44  26 W13       29.75R
$$

WAZ028-034-035-310400-
COLUMBIA BASIN

CITY           SKY/WX    TMP DP  RH WIND       PRES   REMARKS
EPHRATA        CLEAR     84  26  12 NW25G36   29.65S
MOSES LAKE     CLEAR     87  26  11 W18       29.67R
PASCO          CLEAR     86  35  16 NW15      29.66R
HERMISTON, OR  CLEAR     82  47  29 SW17G26   29.69R
$$

WAZ036>038-310400-
NORTHEAST WASHINGTON

CITY           SKY/WX    TMP DP  RH WIND       PRES   REMARKS
SPOKANE GEIGER MOCLDY    84  31  14 SW18      29.70F
SPOKANE FELTS  CLOUDY    87  32  14 SW13      29.68F
FAIRCHILD AFB  CLEAR     82  33  16 SW14      29.70F
COEURDALENE,ID CLEAR     81  39  22 W6        29.68R
DEER PARK      CLEAR     83  28  13 SW13      29.68F
$$

WAZ029>033-310400-
SOUTHEAST WASHINGTON

CITY           SKY/WX    TMP DP  RH WIND       PRES   REMARKS
PULLMAN        CLEAR     80  30  16 SW10      29.77S
LEWISTON, ID   CLEAR     89  25  10 W14G21    29.68R
WALLA WALLA    CLEAR     85  33  15 SW14      29.71S
PENDLETON, OR  CLEAR     82  31  15 W24G32    29.73S
$$




USA.gov is the U.S. government's official web portal to all federal, state and local government web resources and services.